Location: Boiro
(42.6475°N, 8.8834°W)
Time: 20:12:40
(UTC+01:00)

Vanguard 1 - Pass Details

Date: 30 November 2021
Orbit: 652 x 3830 km, 34.2° (Epoch: 19 January)

Event Time Altitude Azimuth Distance (km) Brightness Sun altitude
Rises 22:06:48 0° 170° (S) 6,903 14.2 -44.1°
Enters shadow 22:10:10 - 162° (SSE) 6,692 14.1 -44.7°
Reaches altitude 10° 22:15:52 10° 147° (SSE) 6,490 - -45.7°
Maximum altitude 22:23:46 13° 125° (SE) 6,533 - -47.1°
Drops below altitude 10° 22:32:02 10° 104° (ESE) 6,935 - -48.6°
Sets 22:42:20 0° 83° (E) 7,815 - -50.4°
